Weather History for Avoca, PA

Change the Weather History Date:

Wednesday, January 23, 2013

  Actual Average Record
Temperature  
Mean Temperature 9 °F 26 °F  
Max Temperature 15 °F 33 °F 68 °F (1906)
Min Temperature 2 °F 18 °F -8 °F (1936)
Degree Days  
Heating Degree Days 56 39  
Month to date heating degree days 804 896  
Since 1 July heating degree days 2918 3274  
Cooling Degree Days 0 0  
Month to date cooling degree days 0 0  
Year to date cooling degree days 0 0  
Moisture  
Dew Point 0 °F    
Average Humidity 70    
Maximum Humidity 91    
Minimum Humidity 48    
Precipitation  
Precipitation 0.01 in 0.08 in 1.02 in (1915)
Month to date precipitation 0.74 1.73  
Year to date precipitation 0.74 1.73  
Sea Level Pressure  
Sea Level Pressure 30.17 in    
Wind  
Wind Speed 6 mph (WSW)    
Max Wind Speed 15 mph    
Max Gust Speed 20 mph    
Visibility 8 miles    
Events Snow    
T = Trace of Precipitation, MM = Missing Value Source: NWS Daily Summary

Daily Weather History Graph

Daily Weather History Graph

Search for Another Location

Airport:

Trip Planner

Search our weather history database for the weather conditions in past years. The results will help you decide how hot, cold, wet, or windy it might be!

Date:

Astronomy

Jan. 23, 2013 Rise Set
Actual Time 7:21 AM EST 5:08 PM EST
Civil Twilight 6:51 AM EST 5:38 PM EST
Nautical Twilight 6:18 AM EST 6:11 PM EST
Astronomical Twilight 5:45 AM EST 6:44 PM EST
Moon 2:16 PM EST 4:31 AM EST
Length of Visible Light 10h 46m
Length of Day
9h 46m
Waxing Gibbous, 89% of the Moon is Illuminated
Jan 23
Waxing Gibbous
Jan 26
Full
Feb 3
Last Quarter
Feb 10
New
Feb 17
First Quarter

Hourly Weather History & Observations

Time (EST) Temp. Windchill Dew Point Humidity Pressure Visibility Wind Dir Wind Speed Gust Speed Precip Events Conditions
12:54 AM 5.0 °F -9.1 °F -7.1 °F 58% 30.17 in 10.0 mi WSW 9.2 mph - N/A   Clear
1:54 AM 3.9 °F -6.9 °F -7.1 °F 60% 30.18 in 10.0 mi West 5.8 mph - N/A   Clear
2:54 AM 3.9 °F -6.9 °F -6.0 °F 64% 30.20 in 10.0 mi West 5.8 mph - N/A   Clear
3:54 AM 3.0 °F -9.3 °F -6.0 °F 66% 30.19 in 10.0 mi West 6.9 mph - N/A   Clear
4:54 AM 3.0 °F -10.5 °F -6.0 °F 66% 30.19 in 10.0 mi West 8.1 mph - N/A   Clear
5:54 AM 3.0 °F -8.0 °F -5.1 °F 69% 30.20 in 10.0 mi West 5.8 mph - N/A   Clear
6:54 AM 3.0 °F -10.5 °F -5.1 °F 69% 30.21 in 10.0 mi WSW 8.1 mph - N/A   Clear
7:54 AM 3.0 °F -11.5 °F -2.9 °F 76% 30.21 in 10.0 mi WSW 9.2 mph - N/A   Clear
8:54 AM 6.1 °F -9.5 °F -2.0 °F 69% 30.22 in 10.0 mi WSW 11.5 mph - N/A   Clear
9:54 AM 8.1 °F -5.3 °F -0.9 °F 67% 30.24 in 10.0 mi SW 9.2 mph - N/A   Clear
10:54 AM 10.0 °F -0.9 °F -0.9 °F 61% 30.22 in 10.0 mi WNW 6.9 mph - N/A   Overcast
11:54 AM 10.9 °F 0.2 °F -0.9 °F 59% 30.19 in 10.0 mi West 6.9 mph - N/A   Overcast
12:54 PM 10.9 °F 0.2 °F -2.9 °F 54% 30.17 in 10.0 mi West 6.9 mph - N/A   Mostly Cloudy
1:54 PM 12.0 °F 0.5 °F -4.0 °F 49% 30.16 in 10.0 mi West 8.1 mph - N/A   Mostly Cloudy
2:54 PM 14.0 °F -0.8 °F 1.0 °F 56% 30.17 in 10.0 mi WSW 13.8 mph 19.6 mph N/A   Overcast
3:54 PM 12.0 °F 1.5 °F 5.0 °F 73% 30.17 in 4.0 mi Variable 6.9 mph - 0.00 in Snow Light Snow
4:09 PM 12.2 °F 1.7 °F 5.0 °F 73% 30.11 in 1.8 mi WSW 6.9 mph - N/A Snow Light Snow
4:21 PM 10.4 °F 0.8 °F 6.8 °F 85% 30.11 in 0.5 mi SW 5.8 mph - 0.00 in Snow Snow
4:29 PM 12.2 °F 1.7 °F 5.0 °F 73% 30.11 in 2.5 mi WSW 6.9 mph - 0.00 in Snow Light Snow
4:41 PM 10.4 °F 2.2 °F 5.0 °F 79% 30.11 in 0.8 mi West 4.6 mph - 0.00 in Snow Light Snow
4:54 PM 10.9 °F 4.7 °F 5.0 °F 77% 30.17 in 2.5 mi WNW 3.5 mph - 0.01 in Snow Light Snow
5:02 PM 10.4 °F 2.2 °F 5.0 °F 79% 30.11 in 4.0 mi WNW 4.6 mph - 0.00 in Snow Light Snow
5:21 PM 10.4 °F - 3.2 °F 73% 30.12 in 10.0 mi Calm Calm - 0.00 in   Overcast
5:54 PM 10.9 °F - 3.9 °F 73% 30.18 in 10.0 mi Calm Calm - 0.00 in   Overcast
6:54 PM 8.1 °F - 3.0 °F 80% 30.17 in 10.0 mi Calm Calm - N/A   Partly Cloudy
7:54 PM 6.1 °F - 1.9 °F 83% 30.17 in 9.0 mi Calm Calm - N/A   Clear
8:54 PM 3.9 °F - 1.0 °F 88% 30.16 in 10.0 mi Calm Calm - N/A   Clear
9:54 PM 5.0 °F - -0.0 °F 80% 30.16 in 10.0 mi Calm Calm - N/A   Clear
10:54 PM 3.9 °F -3.4 °F -0.9 °F 80% 30.16 in 10.0 mi ESE 3.5 mph - N/A   Clear
11:54 PM 3.0 °F -6.4 °F -2.0 °F 80% 30.15 in 9.0 mi ESE 4.6 mph - N/A   Clear